| time (UTC) | temp F | wind direction | speed knots | gust knots | rain 1hr in | rain 24hr in | rain mn in | humidity % | barometer mb |
| 20260509224107 | 82 | 84 | 0.9 | 1.7 | 0.00 | 0.02 | 0.02 | 71 | 1006.4 |
| 20260509221107 | 83 | 94 | 5.2 | 7.0 | 0.00 | 0.02 | 0.02 | 68 | 1006.4 |
| 20260509220107 | 84 | 87 | 0.9 | 2.6 | 0.00 | 0.02 | 0.02 | 68 | 1006.5 |
| 20260509215107 | 85 | 90 | 0.9 | 2.6 | 0.00 | 0.02 | 0.02 | 67 | 1006.6 |
| 20260509214107 | 85 | 89 | 0.9 | 3.5 | 0.00 | 0.02 | 0.02 | 66 | 1006.6 |
| 20260509213107 | 85 | 204 | 0.9 | 6.1 | 0.00 | 0.02 | 0.02 | 63 | 1006.8 |
| 20260509212107 | 85 | 22 | 1.7 | 3.5 | 0.00 | 0.02 | 0.02 | 65 | 1006.9 |
| 20260509211107 | 85 | 117 | 2.6 | 4.3 | 0.00 | 0.02 | 0.02 | 68 | 1007.0 |
| 20260509210107 | 85 | 177 | 0.0 | 3.5 | 0.00 | 0.02 | 0.02 | 70 | 1007.1 |
| 20260509205107 | 84 | 251 | 1.7 | 5.2 | 0.00 | 0.02 | 0.02 | 69 | 1007.3 |
| 20260509203107 | 83 | 271 | 3.5 | 5.2 | 0.00 | 0.02 | 0.02 | 73 | 1007.4 |
| 20260509202107 | 82 | 219 | 2.6 | 6.1 | 0.00 | 0.02 | 0.02 | 74 | 1007.5 |
| 20260509201107 | 81 | 74 | 0.0 | 2.6 | 0.00 | 0.02 | 0.02 | 80 | 1007.6 |
| 20260509200107 | 80 | 74 | 0.0 | 0.0 | 0.00 | 0.02 | 0.02 | 79 | 1007.8 |
| 20260509195107 | 80 | 74 | 0.0 | 0.0 | 0.00 | 0.02 | 0.02 | 79 | 1007.9 |
| 20260509194107 | 80 | 74 | 0.0 | 0.9 | 0.00 | 0.02 | 0.02 | 77 | 1008.0 |
| 20260509193107 | 80 | 74 | 0.0 | 3.5 | 0.00 | 0.02 | 0.02 | 77 | 1008.0 |
| 20260509192107 | 81 | 82 | 3.5 | 4.3 | 0.00 | 0.02 | 0.02 | 74 | 1008.1 |
| 20260509185107 | 81 | 205 | 0.9 | 3.5 | 0.00 | 0.02 | 0.02 | 72 | 1008.2 |
| 20260509184107 | 82 | 48 | 0.0 | 1.7 | 0.00 | 0.02 | 0.02 | 73 | 1008.2 |
| 20260509182107 | 82 | 88 | 3.5 | 7.0 | 0.00 | 0.02 | 0.02 | 71 | 1008.3 |
| 20260509181107 | 82 | 39 | 1.7 | 3.5 | 0.00 | 0.02 | 0.02 | 75 | 1008.3 |
| 20260509180107 | 81 | 211 | 0.9 | 2.6 | 0.00 | 0.02 | 0.02 | 75 | 1008.4 |
| 20260509175107 | 81 | 111 | 1.7 | 5.2 | 0.00 | 0.02 | 0.02 | 74 | 1008.6 |
| 20260509174107 | 80 | 45 | 1.7 | 3.5 | 0.00 | 0.02 | 0.02 | 78 | 1008.7 |
| 20260509172107 | 78 | 238 | 0.9 | 3.5 | 0.00 | 0.02 | 0.02 | 80 | 1008.7 |
| 20260509171107 | 78 | 238 | 0.0 | 2.6 | 0.00 | 0.02 | 0.02 | 81 | 1008.8 |
| 20260509164107 | 77 | 223 | 0.0 | 3.5 | 0.00 | 0.02 | 0.02 | 81 | 1008.9 |
| 20260509163107 | 77 | 292 | 2.6 | 4.3 | 0.00 | 0.02 | 0.02 | 84 | 1009.0 |
| 20260509162107 | 77 | 292 | 0.0 | 4.3 | 0.00 | 0.02 | 0.02 | 83 | 1009.0 |
| 20260509161107 | 77 | 319 | 0.9 | 3.5 | 0.00 | 0.02 | 0.02 | 84 | 1008.9 |
| 20260509160107 | 76 | 101 | 0.0 | 2.6 | 0.00 | 0.02 | 0.02 | 84 | 1009.0 |
| 20260509155107 | 76 | 252 | 0.9 | 2.6 | 0.00 | 0.02 | 0.02 | 85 | 1008.9 |
| 20260509154107 | 74 | 302 | 0.0 | 2.6 | 0.00 | 0.02 | 0.02 | 87 | 1008.8 |
| 20260509153107 | 73 | 302 | 1.7 | 2.6 | 0.00 | 0.02 | 0.02 | 86 | 1008.9 |
| 20260509152107 | 73 | 42 | 1.7 | 2.6 | 0.00 | 0.02 | 0.02 | 88 | 1008.9 |
| 20260509151107 | 72 | 30 | 1.7 | 3.5 | 0.00 | 0.02 | 0.02 | 89 | 1009.0 |
| 20260509150107 | 70 | 40 | 0.0 | 0.0 | 0.00 | 0.02 | 0.02 | 90 | 1009.0 |
| 20260509145107 | 69 | 346 | 0.0 | 0.0 | 0.00 | 0.02 | 0.02 | 90 | 1009.2 |
| 20260509144107 | 69 | 346 | 0.0 | 0.0 | 0.00 | 0.02 | 0.02 | 90 | 1009.3 |
| 20260509143107 | 69 | 346 | 0.0 | 0.0 | 0.00 | 0.02 | 0.02 | 90 | 1009.3 |
| 20260509142107 | 69 | 346 | 0.0 | 0.0 | 0.01 | 0.02 | 0.02 | 90 | 1009.3 |
| 20260509141107 | 68 | 346 | 0.0 | 0.9 | 0.01 | 0.02 | 0.02 | 90 | 1009.3 |
| 20260509140107 | 68 | 346 | 0.0 | 0.9 | 0.01 | 0.02 | 0.02 | 91 | 1009.3 |
| 20260509135107 | 67 | 346 | 0.0 | 0.0 | 0.01 | 0.02 | 0.02 | 91 | 1009.3 |
| 20260509134107 | 67 | 346 | 0.0 | 0.9 | 0.01 | 0.02 | 0.02 | 91 | 1009.4 |
| 20260509133107 | 67 | 346 | 0.0 | 2.6 | 0.01 | 0.02 | 0.02 | 90 | 1009.4 |
| 20260509132107 | 66 | 333 | 0.0 | 0.9 | 0.00 | 0.01 | 0.01 | 90 | 1009.5 |
| 20260509131107 | 66 | 333 | 0.0 | 0.9 | 0.00 | 0.01 | 0.01 | 90 | 1009.4 |
| 20260509130107 | 66 | 333 | 0.9 | 1.7 | 0.00 | 0.01 | 0.01 | 91 | 1009.4 |
| 20260509125107 | 65 | 331 | 0.0 | 0.0 | 0.00 | 0.01 | 0.01 | 91 | 1009.4 |
| 20260509124107 | 65 | 331 | 0.0 | 0.0 | 0.00 | 0.01 | 0.01 | 91 | 1009.4 |
| 20260509123107 | 65 | 331 | 0.0 | 0.0 | 0.00 | 0.01 | 0.01 | 91 | 1009.2 |
| 20260509122107 | 65 | 331 | 0.0 | 0.0 | 0.00 | 0.01 | 0.01 | 91 | 1009.1 |
| 20260509121107 | 65 | 331 | 0.0 | 0.0 | 0.00 | 0.01 | 0.01 | 91 | 1009.0 |
| 20260509120107 | 65 | 331 | 0.0 | 0.0 | 0.00 | 0.01 | 0.01 | 91 | 1008.8 |
| 20260509115107 | 64 | 331 | 0.0 | 0.0 | 0.00 | 0.01 | 0.01 | 91 | 1008.6 |
| 20260509114108 | 64 | 331 | 0.0 | 0.0 | 0.00 | 0.01 | 0.01 | 91 | 1008.4 |
| 20260509113108 | 64 | 331 | 0.0 | 0.0 | 0.00 | 0.01 | 0.01 | 91 | 1008.1 |
| 20260509112107 | 64 | 331 | 0.0 | 0.0 | 0.00 | 0.01 | 0.01 | 91 | 1007.8 |
| 20260509103107 | 64 | 331 | 0.0 | 0.0 | 0.00 | 0.01 | 0.01 | 91 | 1007.7 |
| 20260509102107 | 64 | 331 | 0.0 | 0.0 | 0.00 | 0.01 | 0.01 | 91 | 1007.9 |
| 20260509101107 | 64 | 331 | 0.0 | 0.0 | 0.00 | 0.01 | 0.01 | 91 | 1007.9 |
| 20260509100108 | 64 | 331 | 0.0 | 0.0 | 0.01 | 0.01 | 0.01 | 91 | 1007.9 |
| 20260509094108 | 64 | 331 | 0.0 | 0.0 | 0.01 | 0.01 | 0.01 | 90 | 1007.8 |
| 20260509093107 | 64 | 331 | 0.0 | 0.0 | 0.01 | 0.01 | 0.01 | 91 | 1007.7 |
| 20260509092107 | 64 | 331 | 0.0 | 0.0 | 0.01 | 0.01 | 0.01 | 91 | 1007.9 |
| 20260509090107 | 64 | 331 | 0.0 | 0.0 | 0.00 | 0.00 | 0.00 | 91 | 1008.0 |
| 20260509085107 | 64 | 331 | 0.0 | 0.0 | 0.00 | 0.00 | 0.00 | 91 | 1007.9 |
| 20260509084107 | 64 | 331 | 0.0 | 0.0 | 0.00 | 0.00 | 0.00 | 91 | 1007.9 |
| 20260509083107 | 64 | 331 | 0.0 | 0.0 | 0.00 | 0.00 | 0.00 | 91 | 1007.9 |
| 20260509081107 | 63 | 331 | 0.0 | 0.0 | 0.00 | 0.00 | 0.00 | 90 | 1008.3 |
| 20260509080108 | 63 | 331 | 0.0 | 0.0 | 0.00 | 0.00 | 0.00 | 90 | 1008.2 |
| 20260509075107 | 63 | 331 | 0.0 | 0.0 | 0.00 | 0.00 | 0.00 | 90 | 1008.2 |
| 20260509074108 | 63 | 331 | 0.0 | 0.0 | 0.00 | 0.00 | 0.00 | 90 | 1008.0 |
| 20260509073108 | 63 | 331 | 0.0 | 0.0 | 0.00 | 0.00 | 0.00 | 90 | 1008.4 |
| 20260509072107 | 63 | 331 | 0.0 | 0.0 | 0.00 | 0.00 | 0.00 | 89 | 1008.4 |
| 20260509071108 | 63 | 331 | 0.0 | 0.0 | 0.00 | 0.00 | 0.00 | 89 | 1008.6 |
| 20260509065107 | 63 | 331 | 0.0 | 0.0 | 0.00 | 0.00 | 0.00 | 89 | 1009.0 |
| 20260509063107 | 64 | 331 | 0.0 | 0.0 | 0.00 | 0.00 | 0.00 | 88 | 1008.9 |
| 20260509062107 | 64 | 331 | 0.0 | 0.0 | 0.00 | 0.00 | 0.00 | 88 | 1009.0 |
| 20260509055107 | 63 | 329 | 1.7 | 1.7 | 0.00 | 0.00 | 0.00 | 89 | 1009.4 |
| 20260509053107 | 63 | 327 | 0.0 | 0.0 | 0.00 | 0.00 | 0.00 | 88 | 1009.4 |
| 20260509052108 | 64 | 327 | 0.0 | 0.0 | 0.00 | 0.00 | 0.00 | 87 | 1009.3 |
| 20260509051107 | 64 | 327 | 0.0 | 0.0 | 0.00 | 0.00 | 0.00 | 87 | 1009.1 |
| 20260509050108 | 64 | 327 | 0.0 | 0.0 | 0.00 | 0.00 | 0.00 | 87 | 1008.5 |
| 20260509045107 | 64 | 327 | 0.0 | 0.0 | 0.00 | 0.00 | 0.00 | 87 | 1008.3 |
| 20260509044108 | 65 | 327 | 0.0 | 0.0 | 0.00 | 0.00 | 0.00 | 87 | 1008.7 |
| 20260509043107 | 64 | 327 | 0.0 | 1.7 | 0.00 | 0.00 | 0.00 | 87 | 1008.1 |
| 20260509042108 | 64 | 70 | 0.0 | 0.0 | 0.00 | 0.00 | 0.00 | 88 | 1008.6 |
| 20260509040107 | 65 | 70 | 0.0 | 0.0 | 0.00 | 0.00 | 0.00 | 87 | 1009.2 |
| 20260509035107 | 66 | 70 | 0.0 | 0.0 | 0.00 | 0.00 | 0.00 | 86 | 1009.2 |
| 20260509034108 | 66 | 70 | 0.0 | 0.9 | 0.00 | 0.00 | 0.00 | 86 | 1009.1 |
| 20260509033108 | 66 | 70 | 0.0 | 4.3 | 0.00 | 0.00 | 0.00 | 86 | 1009.4 |
| 20260509031107 | 65 | 220 | 0.0 | 1.7 | 0.00 | 0.00 | 0.00 | 87 | 1009.2 |
| 20260509025107 | 67 | 220 | 0.0 | 1.7 | 0.00 | 0.00 | 0.00 | 85 | 1007.4 |
| 20260509024107 | 66 | 220 | 0.9 | 2.6 | 0.00 | 0.00 | 0.00 | 86 | 1007.1 |
| 20260509023108 | 67 | 220 | 1.7 | 3.5 | 0.00 | 0.00 | 0.00 | 87 | 1006.8 |
| 20260509022108 | 67 | 220 | 0.9 | 2.6 | 0.00 | 0.00 | 0.00 | 88 | 1007.0 |
| 20260509021107 | 67 | 108 | 0.0 | 4.3 | 0.00 | 0.00 | 0.00 | 88 | 1007.4 |
| 20260509020107 | 67 | 111 | 0.0 | 0.0 | 0.00 | 0.00 | 0.00 | 88 | 1007.2 |
| 20260509015108 | 68 | 111 | 0.0 | 0.0 | 0.00 | 0.00 | 0.00 | 87 | 1007.0 |
| 20260509014107 | 69 | 111 | 0.0 | 0.9 | 0.00 | 0.00 | 0.00 | 86 | 1007.5 |
| 20260509013108 | 69 | 111 | 0.0 | 0.0 | 0.00 | 0.00 | 0.00 | 85 | 1007.3 |
| 20260509012108 | 70 | 111 | 0.0 | 0.9 | 0.00 | 0.00 | 0.00 | 84 | 1007.2 |
| 20260509011107 | 71 | 111 | 0.0 | 0.0 | 0.00 | 0.00 | 0.00 | 82 | 1007.2 |
| 20260509010107 | 72 | 111 | 0.0 | 0.0 | 0.00 | 0.00 | 0.00 | 81 | 1007.0 |
| 20260509005107 | 73 | 111 | 0.0 | 0.0 | 0.00 | 0.00 | 0.00 | 80 | 1006.8 |
| 20260509004107 | 73 | 111 | 0.0 | 0.0 | 0.00 | 0.00 | 0.00 | 79 | 1006.8 |
| 20260509003107 | 74 | 321 | 0.0 | 0.9 | 0.00 | 0.00 | 0.00 | 78 | 1006.6 |
| 20260509002108 | 74 | 316 | 0.0 | 2.6 | 0.00 | 0.00 | 0.00 | 75 | 1006.2 |
| 20260509001108 | 74 | 316 | 0.0 | 2.6 | 0.00 | 0.00 | 0.00 | 74 | 1006.0 |
| 20260509000107 | 74 | 315 | 1.7 | 3.5 | 0.00 | 0.00 | 0.00 | 73 | 1006.1 |
| 20260508235107 | 75 | 105 | 2.6 | 4.3 | 0.00 | 0.00 | 0.00 | 73 | 1006.4 |
| 20260508234108 | 75 | 80 | 2.6 | 4.3 | 0.00 | 0.00 | 0.00 | 72 | 1006.4 |
| 20260508233108 | 74 | 201 | 0.0 | 2.6 | 0.00 | 0.00 | 0.00 | 72 | 1006.9 |
| 20260508231107 | 75 | 201 | 0.9 | 1.7 | 0.00 | 0.00 | 0.00 | 72 | 1007.5 |
| 20260508230108 | 75 | 201 | 0.9 | 2.6 | 0.00 | 0.00 | 0.00 | 70 | 1007.6 |
| 20260508225107 | 75 | 202 | 1.7 | 4.3 | 0.00 | 0.00 | 0.00 | 70 | 1007.8 |